SCP
0 0 0 0 0 0 0 0 0 0 0 0 0 0 0 0 0 0 0 0 0 0
0 0 0 0 0 0 0 0 0 0 0 0 0 0 0 0 0 0 0 0 0 0
0 0 0 0 0 0 0 0 0 0 0 0 0 0 0 0 0 0 0 0 0 0
0 0 0 0 0 0 0 0 0 0 0 0 0 0 0 0 0 0 0 0 0 0
0 0 0 0 0 0 0 0 0 0 0 0 0 0 0 0 0 0 0 0 0 0
-0 -0 -0 -0 -0 -0 -0 0 0 0 0 0 0 0 0 0 0 0 0 0 0 0
-0 -0 -0 -0 -0 -0 -0 -0 -0 -0 0 0 0 0 0 0 0 0 0 0 0 0
0 0 0 0 0 -0 -0 -0 -0 -0 -0 -0 -0 0 0 0 0 0 0 0 0 0
0 0 0 0 0 -0 -0 -0 -0 -0 -0 -0 -0 -0 0 0 0 0 0 0 0 0
0 0 0 0 0 0 0 0 0 0 0 0 -0 -0 0 0 0 0 0 0 0 0
0 0 0 0 0 0 0 0 0 0 0 0 0 0 0 0 0 0 0 0 0 0
0 0 0 0 0 0 0 0 0 0 0 0 0 0 0 0 0 0 0 0 0 0
0 0 0 0 0 0 0 0 0 0 0 0 0 0 0 0 0 0 0 0 0 0
0 0 0 0 0 0 0 0 0 0 0 0 0 0 0 0 0 0 0 0 0 0
Wind_Speed_500mb
30 31 31 31 29 27 28 29 28 30 34 38 35 35 38 50 60 68 72 77 79 85
26 28 30 31 32 34 34 33 31 30 31 32 31 35 38 44 49 58 68 73 75 81
25 25 29 32 34 36 39 40 42 41 39 36 34 34 36 41 45 53 59 67 73 77
32 33 35 37 41 42 42 45 47 49 51 52 49 45 41 40 44 48 54 59 66 73
44 47 49 50 48 51 52 51 54 54 55 55 56 56 54 53 48 49 55 57 59 67
50 56 61 65 66 63 64 61 59 61 63 61 62 66 63 61 60 58 59 56 62 66
53 60 64 65 66 69 74 80 79 77 78 76 74 75 76 77 74 70 69 65 64 62
58 63 66 69 74 79 83 87 89 94 96 97 93 92 89 88 89 90 87 83 78 74
64 67 71 76 83 89 96 101 105 109 109 109 107 105 104 100 95 96 98 102 98 91
65 72 77 85 94 100 105 108 109 111 111 115 118 116 108 95 87 98 101 104 106 107
73 79 86 93 99 102 103 107 110 113 114 116 122 117 89 81 81 90 98 100 105 107
84 90 93 94 95 97 100 105 107 110 113 111 122 105 89 84 88 96 104 109 113 110
88 89 92 93 95 96 97 102 102 103 96 92 96 86 76 71 77 92 99 101 100 101
85 86 88 92 92 96 98 97 91 88 83 80 77 76 62 59 64 76 88 91 93 91
Wind_Direction_500mb
17 17 19 23 22 15 11 6 349 321 294 281 282 276 261 259 259 259 258 258 258 261
25 17 17 16 9 8 5 3 358 352 346 334 313 291 279 269 266 261 259 259 257 257
20 13 5 356 353 354 352 349 346 345 345 343 339 332 313 291 278 272 264 261 259 257
355 355 350 347 346 342 339 334 334 335 335 335 335 332 324 313 308 291 276 266 263 262
346 345 342 339 336 332 329 328 326 323 320 320 322 321 319 315 312 305 297 291 272 265
332 334 334 333 330 329 325 324 322 320 316 314 312 309 307 306 305 303 299 298 293 288
322 325 324 322 321 321 321 321 318 315 312 310 308 304 303 302 299 296 294 294 292 289
318 318 316 316 316 316 314 311 309 307 306 305 302 300 299 296 295 294 292 289 287 288
312 312 313 314 312 311 309 308 307 306 304 301 298 297 295 293 291 288 286 286 286 283
309 310 311 311 309 308 307 305 303 301 300 298 297 296 296 294 290 287 284 283 281 281
311 311 310 309 308 307 306 304 302 300 298 296 292 292 292 291 288 285 280 276 275 276
312 312 312 311 310 309 306 303 301 299 297 294 292 293 292 291 286 282 279 277 277 275
315 316 316 315 313 312 309 306 303 301 300 298 297 298 296 292 286 282 282 281 278 276
318 318 318 317 317 316 314 310 307 305 306 306 306 309 302 297 290 286 286 285 284 281
Wind_Speed_850mb
30 31 31 31 29 27 28 29 28 30 34 38 35 35 38 50 60 68 72 77 79 85
26 28 30 31 32 34 34 33 31 30 31 32 31 35 38 44 49 58 68 73 75 81
25 25 29 32 34 36 39 40 42 41 39 36 34 34 36 41 45 53 59 67 73 77
32 33 35 37 41 42 42 45 47 49 51 52 49 45 41 40 44 48 54 59 66 73
44 47 49 50 48 51 52 51 54 54 55 55 56 56 54 53 48 49 55 57 59 67
50 56 61 65 66 63 64 61 59 61 63 61 62 66 63 61 60 58 59 56 62 66
53 60 64 65 66 69 74 80 79 77 78 76 74 75 76 77 74 70 69 65 64 62
58 63 66 69 74 79 83 87 89 94 96 97 93 92 89 88 89 90 87 83 78 74
64 67 71 76 83 89 96 101 105 109 109 109 107 105 104 100 95 96 98 102 98 91
65 72 77 85 94 100 105 108 109 111 111 115 118 116 108 95 87 98 101 104 106 107
73 79 86 93 99 102 103 107 110 113 114 116 122 117 89 81 81 90 98 100 105 107
84 90 93 94 95 97 100 105 107 110 113 111 122 105 89 84 88 96 104 109 113 110
88 89 92 93 95 96 97 102 102 103 96 92 96 86 76 71 77 92 99 101 100 101
85 86 88 92 92 96 98 97 91 88 83 80 77 76 62 59 64 76 88 91 93 91
Wind_Direction_850mb
17 17 19 23 22 15 11 6 349 321 294 281 282 276 261 259 259 259 258 258 258 261
25 17 17 16 9 8 5 3 358 352 346 334 313 291 279 269 266 261 259 259 257 257
20 13 5 356 353 354 352 349 346 345 345 343 339 332 313 291 278 272 264 261 259 257
355 355 350 347 346 342 339 334 334 335 335 335 335 332 324 313 308 291 276 266 263 262
346 345 342 339 336 332 329 328 326 323 320 320 322 321 319 315 312 305 297 291 272 265
332 334 334 333 330 329 325 324 322 320 316 314 312 309 307 306 305 303 299 298 293 288
322 325 324 322 321 321 321 321 318 315 312 310 308 304 303 302 299 296 294 294 292 289
318 318 316 316 316 316 314 311 309 307 306 305 302 300 299 296 295 294 292 289 287 288
312 312 313 314 312 311 309 308 307 306 304 301 298 297 295 293 291 288 286 286 286 283
309 310 311 311 309 308 307 305 303 301 300 298 297 296 296 294 290 287 284 283 281 281
311 311 310 309 308 307 306 304 302 300 298 296 292 292 292 291 288 285 280 276 275 276
312 312 312 311 310 309 306 303 301 299 297 294 292 293 292 291 286 282 279 277 277 275
315 316 316 315 313 312 309 306 303 301 300 298 297 298 296 292 286 282 282 281 278 276
318 318 318 317 317 316 314 310 307 305 306 306 306 309 302 297 290 286 286 285 284 281